#timestamp,LO_Frequency,Hit,StdDev 
1621627215.6,286047003.7,N
1621627235.4,286047004.0,N
1621627255.3,286047001.5,N
1621627275.1,286047001.7,N
1621627295.8,286047002.7,N
1621627315.7,286047001.7,N
1621627335.5,286047000.6,N
1621627355.4,286047000.6,N
1621627375.2,286047000.7,N
1621627395.0,286047002.7,N
1621627395.9,286047002.7,N
1621627415.8,286047000.1,N
1621627435.6,286047002.3,N
1621627455.5,286047003.7,N
1621627475.3,286047003.2,N
1621627495.1,286047004.3,N
1621627515.9,286047002.6,N
1621627535.7,286047002.4,N
1621627555.5,286047000.3,N
1621627575.4,286046998.4,N
1621627595.2,286047000.5,N
1621627615.1,286046999.8,N
1621627616.0,286046999.8,N
1621627635.8,286046998.2,N
1621627655.6,286046998.6,N
1621627675.5,286047000.8,N
1621627725.3,286047001.0,E
1621627735.3,286047000.8,N
1621627755.1,286047001.1,P
1621627756.0,286047001.1,P
1621627775.8,286046998.5,Y
1621627795.7,286046997.5,P
1621627815.5,286046999.1,N
1621627835.3,286047001.2,N
1621627855.2,286046996.6,N
1621627875.0,286046996.5,N
1621627875.9,286046996.5,N
1621627895.8,286047001.0,N
1621627915.6,286046998.1,N
1621627935.4,286047000.8,N
1621627955.3,286046999.8,N
1621627975.1,286046998.1,N
1621627995.9,286046999.4,N
1621628015.7,286047000.7,N
1621628035.5,286046998.2,N
1621628055.4,286047000.7,N
1621628075.2,286047000.1,N
1621628095.0,286047002.8,N
1621628095.9,286047002.8,N
1621628115.8,286047002.2,N
1621628135.6,286047004.3,N
1621628155.5,286047004.4,N
1621628175.3,286047005.2,N
1621628195.1,286047005.4,N
1621628215.9,286047007.5,N
1621628235.7,286047005.3,N
1621628255.5,286047004.5,N
1621628275.4,286047004.9,N
1621628295.2,286047006.1,N
1621628315.1,286047005.5,N
1621628316.0,286047005.5,N
1621628335.8,286047007.4,N
1621628355.6,286047009.0,N
1621628375.5,286047010.3,N
1621628395.3,286047008.9,N
1621628415.1,286047007.3,N
1621628435.9,286047006.4,N
1621628455.7,286047003.4,N
1621628475.6,286047002.9,N
1621628495.4,286047003.9,N
1621628545.3,286047006.2,E
1621628555.2,286047003.3,N
1621628575.0,286047002.5,P
1621628575.9,286047002.5,P
1621628595.8,286047003.6,Y
1621628615.6,286046998.7,P
1621628635.5,286047004.0,N
1621628655.3,286047000.0,N
1621628675.1,286047002.8,N
1621628695.9,286047002.4,N
1621628715.7,286047002.0,N
1621628735.5,286047003.8,N
1621628755.4,286047004.0,N
1621628775.2,286047002.2,N
1621628795.1,286047004.2,N
1621628796.0,286047004.2,N
1621628815.8,286047000.1,N
1621628835.6,286047001.4,N
1621628855.5,286047000.1,N
1621628875.3,286047000.7,N
1621628895.2,286046999.0,N
1621628915.9,286046999.6,N
1621628935.7,286046998.8,N
1621628955.6,286047000.5,N
1621628975.4,286046999.0,N
1621628995.2,286047000.4,N
1621629015.1,286047000.6,N
1621629016.0,286047000.6,N
1621629035.8,286047001.0,N
1621629055.7,286046998.1,N
1621629075.5,286046997.4,N
1621629095.3,286046997.6,N
1621629115.2,286046997.8,N
1621629135.0,286046999.4,N
1621629135.9,286046999.4,N
1621629155.8,286047000.7,N
1621629175.6,286047000.0,N
1621629195.4,286047000.3,N
1621629215.3,286047002.2,N
1621629235.1,286047002.0,N
1621629255.8,286046999.9,N
1621629275.7,286047000.9,N
1621629295.5,286047000.5,N
1621629315.4,286046999.8,N
1621629335.2,286047000.9,N
1621629355.0,286046999.8,N
1621629355.9,286046999.8,N
1621629375.8,286047001.1,N
1621629395.6,286046999.7,N
1621629415.4,286047002.0,N
1621629435.3,286047001.7,N
1621629455.1,286046999.7,N
1621629475.9,286047001.7,N
1621629495.7,286047001.3,N
1621629515.5,286047005.7,Y
1621629535.4,286047003.4,P
1621629555.2,286047004.1,N
1621629575.1,286047003.3,N
1621629576.0,286047003.3,N
1621629595.8,286047005.9,Y
1621629615.6,286047002.0,P
1621629635.5,286047001.5,P
1621629655.3,286047003.4,P
1621629675.2,286047003.3,Y
1621629695.9,286046999.2,P
1621629715.7,286046998.4,N
1621629735.6,286046998.5,N
1621629755.4,286046998.8,N
1621629775.2,286047000.9,N
1621629795.1,286047001.7,N
1621629796.0,286047001.7,N
1621629815.8,286047000.2,N
1621629835.7,286046994.9,Y
1621629855.5,286046995.3,P
1621629875.3,286046995.9,N
1621629895.2,286046997.0,N
1621629915.0,286046998.8,N
1621629915.9,286046998.8,N
1621629935.7,286047000.6,N
1621629955.6,286046998.8,N
1621629975.4,286046999.2,N
1621629995.3,286046997.7,N
1621630015.1,286046999.5,N
1621630016.0,286046999.5,N
1621630035.8,286047002.6,N
1621630055.7,286047002.6,N
1621630075.5,286047002.2,N
1621630095.3,286047002.0,N
1621630115.2,286047004.2,N
1621630135.0,286047003.4,N
1621630135.9,286047003.4,N
1621630155.8,286047002.4,N
1621630175.6,286047003.7,N
1621630195.4,286047004.3,N
1621630215.3,286047005.1,N
1621630235.1,286047007.3,N
1621630255.9,286047007.5,N
1621630275.7,286047005.1,N
1621630295.5,286047007.2,N
1621630315.4,286047007.5,N
1621630335.2,286047006.8,N
1621630355.0,286047008.3,N
1621630355.9,286047008.3,N
1621630405.8,286047006.9,E
1621630415.7,286047003.0,N
1621630435.6,286047003.1,P
1621630455.4,286047002.2,P
1621630475.2,286046999.8,N
1621630495.1,286046999.1,N
1621630496.0,286046999.1,N
1621630515.8,286046999.2,N
1621630535.7,286047004.3,N
1621630555.5,286047002.1,N
1621630575.3,286047002.8,N
1621630595.2,286046999.7,N
1621630615.0,286047000.0,N
1621630615.9,286047000.0,N
1621630635.8,286047001.4,N
1621630655.6,286047000.2,N
1621630675.4,286047002.3,N
1621630695.3,286047000.3,N
1621630715.1,286047000.9,N
1621630735.8,286046998.5,N
1621630755.7,286047002.4,N
1621630775.5,286047002.4,N
1621630795.4,286046998.6,N
